COSMOS 192

Satellite information

Favourite Embed

Satellite Type and Status

PAYLOADIN ORBIT

Key statistics

Satellite COSMOS 192 at a glance.

Uptime

21161

Days in orbit

Revolutions

≈ 14.6

Per day

Orbit

LEO

Low Earth Orbit

Inclination

74.0

Latest

Satellite identification and parameters

Extended collection of information and parameters for COSMOS 192.

Object identification

Identified? True

Debris? False

Object name: COSMOS 192

International designator: 1967-116A

Object number (NORAD): 3047

Object ID (CCSDS): 3047

Country: COMMONWEALTH OF INDEPENDENT STATES (CIS)

Current information (Y/N): Y

RCS size: LARGE

Orbital parameters

Period: 98.807 minutes

Inclination: 74.0102 deg

SMA: 7079.77 km

Apoapsis: 707.988 km

Periapsis: 695.281 km

RAAN: 96.6511 deg

Eccentricy: 0.00089743

Argument of periapsis: 315.0192 deg

Mean anomaly: 45.0244 deg

Mean motion: 14.5738425 rev/day

Mean motion (dot): 0.00000597 rev/day2

B* drag term: 0.00013817322 1/REarth

Two-line elements (TLE)

Creation date: Oct. 28, 2025, 7:11 p.m.

Reference frame: TEME

Reference center: EARTH

Epoch: Oct. 28, 2025, 11:37 a.m. UTC

TLE line 0: 0 COSMOS 192

TLE line 1: 1 03047U 67116A 25301.48430503 .00000597 00000-0 13817-3 0 9997

TLE line 2: 2 03047 74.0102 96.6511 0008974 315.0192 45.0244 14.57384250 64870

Live tracking on map

Real-time ground track for satellite COSMOS 192.

In-orbit conjunctions

A list of the most updated potential collisions computed for object COSMOS 192.

Target Orbit TCA Probability of collision Miss distance Type
FENGYUN 1C DEB SSO 2025-05-30 08:04:21 0.000334229 745.0 (m) DEBRIS
CZ-6A DEB SSO 2025-03-29 12:13:28 0.000153764 645.0 (m) DEBRIS
NOAA 17 DEB SSO 2025-02-05 05:53:12 0.0001938835 650.0 (m) DEBRIS
FENGYUN 1C DEB SSO 2024-12-19 03:34:54 0.0007206013 304.0 (m) DEBRIS
CZ-4 DEB SSO 2024-10-23 16:52:35 0.0001472567 417.0 (m) DEBRIS

Associated space launch

The first soviet navigation system called Tsiklon consisted of Zaliv satellites in low earth orbit.

COSMOS 192 was lifted into orbit during the mission ‘Kosmos-3M | Zaliv 1’, on board a Kosmos-3M space rocket.

The launch took place on Nov. 23, 1967, 3 p.m. from 132/2.

For more information about the launch, click the button.

Launch to space Kosmos-3M | Zaliv 1
Kosmos-3M | Zaliv 1

Agency: N/A

Status: Launch Successful

Launch date: Nov. 23, 1967, 3 p.m. UTC

Rocket: Kosmos-3M

Launch pad: 132/2

Location: Plesetsk Cosmodrome, Russian Federation

...

Latest news about this satellite

There are no fresh news available about this satellite. Check back as we update our databases every day.


Newsletter sign-up

Weekly statistics, charts and insights to help you stay on top of the space industry.